TimeSAST,TemperatureF,Dew PointF,Humidity,Sea Level PressureIn,VisibilityMPH,Wind Direction,Wind SpeedMPH,Gust SpeedMPH,PrecipitationIn,Events,Conditions,WindDirDegrees,DateUTC
2:00 AM,60,51,64,29.86,37,WNW,10.4,,,,,290,2014-03-26 00:00:00
5:00 AM,57,48,64,29.85,12,NW,8.1,,,,,310,2014-03-26 03:00:00
5:00 AM,57.2,48.2,72,29.83,-9999.0,NW,8.1,-,N/A,,Clear,310,2014-03-26 03:00:00
6:00 AM,60.8,46.4,59,29.83,-9999.0,NW,15.0,-,N/A,,Clear,320,2014-03-26 04:00:00
7:00 AM,60.8,46.4,59,29.86,-9999.0,NW,15.0,-,N/A,,Clear,310,2014-03-26 05:00:00
8:00 AM,64,47,42,29.87,12,NW,12.7,,,,Scattered Clouds,320,2014-03-26 06:00:00
8:00 AM,64.4,46.4,52,29.86,-9999.0,NW,12.7,-,N/A,,Clear,320,2014-03-26 06:00:00
9:00 AM,68.0,46.4,46,29.86,-9999.0,NW,18.4,-,N/A,,Clear,310,2014-03-26 07:00:00
10:00 AM,69.8,46.4,43,29.89,-9999.0,NW,15.0,-,N/A,,Clear,320,2014-03-26 08:00:00
11:00 AM,73,50,33,29.90,12,WNW,19.6,,,,Scattered Clouds,290,2014-03-26 09:00:00
11:00 AM,73.4,48.2,41,29.89,6.2,WNW,19.6,-,N/A,,Partly Cloudy,290,2014-03-26 09:00:00
12:00 PM,75.2,48.2,38,29.89,6.2,West,24.2,-,N/A,,Partly Cloudy,280,2014-03-26 10:00:00
1:00 PM,75.2,48.2,38,29.86,6.2,West,24.2,-,N/A,,Scattered Clouds,280,2014-03-26 11:00:00
2:00 PM,75,48,27,29.88,12,WNW,23.0,,,,Mostly Cloudy,290,2014-03-26 12:00:00
2:00 PM,75.2,48.2,38,29.86,6.2,WNW,21.9,-,N/A,,Mostly Cloudy,290,2014-03-26 12:00:00
3:00 PM,71.6,50.0,46,29.89,6.2,West,19.6,-,N/A,,Mostly Cloudy,270,2014-03-26 13:00:00
4:00 PM,73.4,50.0,44,29.89,6.2,West,18.4,-,N/A,,Mostly Cloudy,270,2014-03-26 14:00:00
5:00 PM,72,49,33,29.92,12,West,13.8,,,,Mostly Cloudy,280,2014-03-26 15:00:00
5:00 PM,71.6,50.0,46,29.92,6.2,West,12.7,-,N/A,,Mostly Cloudy,280,2014-03-26 15:00:00
6:00 PM,66.2,57.2,73,29.95,6.2,SSW,15.0,-,N/A,,Mostly Cloudy,210,2014-03-26 16:00:00
7:00 PM,66.2,57.2,73,29.98,6.2,WNW,4.6,-,N/A,,Mostly Cloudy,290,2014-03-26 17:00:00
8:00 PM,64,58,73,30.03,12,West,3.5,,,,Mostly Cloudy,280,2014-03-26 18:00:00
8:00 PM,64.4,59.0,83,30.01,6.2,West,3.5,-,N/A,,Mostly Cloudy,280,2014-03-26 18:00:00
9:00 PM,64.4,57.2,77,30.04,6.2,North,4.6,-,N/A,,Mostly Cloudy,350,2014-03-26 19:00:00
10:00 PM,64.4,55.4,73,30.06,6.2,West,8.1,-,N/A,,Overcast,270,2014-03-26 20:00:00
11:00 PM,64.4,55.4,73,30.06,6.2,WNW,5.8,-,N/A,,Overcast,290,2014-03-26 21:00:00